World > North America > United States > Washington

Doris, Washington Regional Weather

Lat: 46.87N, Lon: 120.01W
Wx Zone: WAZ026Web Search

Helpful Tip: You can add this page to Bookmarks by pressing the Ctrl key & d key at the same time. Mac users press command & d.

Feedback


°F Click to change Doris hourly weather to Imperial units.Click to change Doris hourly weather to Metric units. °C
Doris Weather Map
UTC Time: 4/16/2021, 11:21
Your Time:

Doris, WA Regional Weather

Expires:202104161200;;637544
ASUS46 KSEW 161110
RWRWA 

WASHINGTON REGIONAL WEATHER ROUNDUP
NATIONAL WEATHER SERVICE SEATTLE WA
400 AM PDT FRI APR 16 2021

NOTE:"FAIR" INDICATES FEW OR NO CLOUDS BELOW 12,000 FEET WITH NO 
SIGNIFICANT WEATHER AND/OR OBSTRUCTIONS TO VISIBILITY.


WAZ026-027-041>044-520-521-161200-
EAST SLOPES
  
CITY           SKY/WX    TMP DP  RH WIND       PRES   REMARKS
OMAK           CLEAR     42  26  53 CALM      30.25R                  
WENATCHEE      CLEAR     45  28  51 CALM      30.24R                  
ELLENSBURG     CLEAR     37  27  67 N3        30.23R                  
YAKIMA         CLEAR     36  26  67 W7        30.22R                  
SUNNYSIDE ARPT SUNNY     37  31  79 CALM      30.20                   
YAKIMA TC      FAIR      42  24  50 CALM      30.20R                  
$$


SKY/WX - Weather  TMP - Temperature  DP - Dew Point  RH - Relative Humidity
WIND - Wind Direction/Speed PRES - Barometric Pressure VSB - Visibility
WCI - Wind Chill Index E13G22 Wind - East Wind 13 mph/Gusts of 22 mph